カタログに戻る

STARLINK-3698

運用中通信VLEO
NORAD 52108·PAYLOAD·🇺🇸 United States

打ち上げ Mar 19, 2022 から Cape Canaveral Space Force Station

Loading…

次のパス (今後24時間)

TLE

最新Source: CelesTrak SupGP

元期: Sep 14, 2026, 13:38 UTC

1 52108C 22029W   26257.56854167  .00023432  00000+0  71108-3 0  2575
2 52108  53.1584 297.4830 0001263  74.4756 273.3161 15.33535023    16

AllMySatでSTARLINK-3698をリアルタイム追跡

Download on the App Store